Regional Weather Roundup
Issued by NWS Mobile, AL

Home | Current Version | Previous Version | Text Only | Print | Product List | Glossary On
Versions: 1 2 3 4 5 6 7 8 9 10 11 12 13 14 15 16 17 18 19 20 21 22 23 24 25 26 27 28 29 30 31 32 33 34 35 36 37 38 39 40 41 42 43 44 45 46 47 48 49 50
000
ASUS44 KMOB 270512
RWRMOB
REGIONAL WEATHER ROUNDUP
NATIONAL WEATHER SERVICE MOBILE AL
1100 PM CST SUN FEB 26 2017

NOTE: "FAIR" INDICATES FEW OR NO CLOUDS BELOW 12,000 FEET WITH NO
      SIGNIFICANT WEATHER AND/OR OBSTRUCTIONS TO VISIBILITY.

  * THESE STATIONS ARE PART OF THE UNIVERSITY OF SOUTH ALABAMA
    MESONET AND ARE NOT UNDER NWS OR FAA QUALITY CONTROL.

ALZ061>064-270600-
COASTAL ALABAMA

CITY           SKY/WX    TMP DP  RH WIND       PRES   REMARKS
MOBILE REG APT CLEAR     54  46  74 SE5       30.14F
BROOKLEY FIELD CLEAR     59  52  77 SE9       30.15F
USA CAMPUS*      N/A     52  46  82 CALM      30.14F
DOG RIVER*       N/A     59  52  77 SE3       30.93F


CITY           SKY/WX    TMP DP  RH WIND       PRES   REMARKS
GULF SHORES    CLEAR     62  52  70 SE17G25   30.15S

$$

ALZ051>060-270600-
INTERIOR SOUTHWEST AND SOUTH CENTRAL ALABAMA

CITY           SKY/WX    TMP DP  RH WIND       PRES   REMARKS
GREENVILLE     CLEAR     55  27  34 SE5       30.17S
EVERGREEN      CLEAR     44  39  82 CALM      30.17F
ATMORE*          N/A     48  45  87 SE3       30.17F
ANDALUSIA/OPP  CLEAR     53  34  48 CALM      30.17F
ANDALUSIA*       N/A     52  32  46 SE5       30.16F
FLORALA APT    PTCLDY    46  38  73 S3        30.20F
FLORALA*         N/A     45  41  87 CALM      30.95F

$$

FLZ001>006-270600-
WESTERN FLORIDA PANHANDLE

CITY           SKY/WX    TMP DP  RH WIND       PRES   REMARKS
PENSACOLA      CLEAR     62  53  72 SE8       30.16S
NAS PENSACOLA  CLEAR     64  51  62 SE10      30.15F
MILTON         LGT RAIN  46  41  82 E3        30.16F
WHTNG S FIELD  CLEAR     56  44  64 E8        30.17F


CITY           SKY/WX    TMP DP  RH WIND       PRES   REMARKS
JAY*             N/A     50  41  71 E8        30.16F
DUKE FIELD     CLEAR     44  40  86 CALM      30.16F
CRESTVIEW      CLEAR     44  40  85 CALM      30.19F
VALPARAISO     CLEAR     51  45  78 NE6       30.18S
DESTIN         CLEAR     60  55  83 CALM      30.17S

$$

MSZ076-079-270600-
INTERIOR SOUTHEAST MISSISSIPPI

CITY           SKY/WX    TMP DP  RH WIND       PRES   REMARKS
LEAKESVILLE*   NOT AVBL
AGRICOLA*        N/A     52  45  76 CALM      30.13F

$$

MARINE OBSERVATIONS

STATION/POSITION TIME  TEMP    WIND        PRES    WAVE
                       AIR SEA DIR/SP/G            HT/PER
                 (UTC) (F)     (DEG/KT/KT) (MB)    (FT/S)
PASCAGOULA       0448   65     140/ 12/ 16 1020.3F
PETIT BOIS ISLND 0448   65     130/ 16/ 20 1021.0F
GRAND BAY        0330   65     130/ 14     1021.0S
E DAUPHIN ISLAND 0400   66     130/ 21/ 24 1020.5F
MIDDLE BAY LIGHT 0400   62     100/  9     1021.0
USCG MOBILE BAY  0448   60 65  130/  7/ 10 1021.2F
STATE DOCKS      0448   59 63              1020.6F
MEAHER PARK      0430   56      80/  3     1020.6F
WEEKS BAY        0330   51                   N/A
FORT MORGAN      0448   67     140/ 21/ 24   N/A
12 S ORANGE BCH  0450   68 68  130/ 19/ 23 1020.5F   4/ 5
PENSACOLA BAY    0448   65 66  150/  5/  8 1021.4F
67 S FORT MORGAN 0430   67     130/ 19     1020.3F

$$

SELECTED LOCATIONS ACROSS THE REGION

CITY           SKY/WX    TMP DP  RH WIND       PRES   REMARKS
NEW ORLEANS    MOCLDY    65  58  78 SE12      30.08F
GULFPORT       MOCLDY    65  56  72 SE12      30.12F
PASCAGOULA AP  CLEAR     47  44  90 CALM      30.14F
PASCAGOULA*    NOT AVBL
HATTIESBURG    CLEAR     47  39  74 SE3       30.15S
LAUREL         CLEAR     48  36  61 SE5       30.15F
MERIDIAN       CLEAR     52  35  52 S7        30.13S
JACKSON        MOCLDY    58  42  55 S18       30.07F
MONTGOMERY     CLEAR     53  32  44 SE7       30.18F
TROY           CLEAR     51  32  48 CALM      30.19F
ASHFORD*         N/A     52  32  46 SE5       30.16F
DOTHAN         CLEAR     55  31  39 E7        30.23F
PANAMA CITY    CLEAR     49  46  90 NE5       30.17F

$$




USA.gov is the U.S. government's official web portal to all federal, state and local government web resources and services.